Location: Stoke Bliss
(52.2667°N, 2.5167°W)
Time: 09:26:38
(UTC+00:00)

Envisat - Pass Details

Date: 03 December 2021
Orbit: 764 x 766 km, 98.2° (Epoch: 25 January)

Event Time Altitude Azimuth Distance (km) Brightness Sun altitude
Rises 04:27:21 0° 21° (NNE) 3,248 6.5 -31.4°
Reaches altitude 10° 04:29:56 10° 32° (NNE) 2,316 5.8 -31.0°
Maximum altitude 04:34:27 31° 94° (E) 1,325 4.7 -30.3°
Drops below altitude 10° 04:38:55 10° 156° (SSE) 2,300 5.7 -29.6°
Sets 04:41:28 0° 167° (SSE) 3,220 6.4 -29.2°
